TimeEDT,TemperatureF,Dew PointF,Humidity,Sea Level PressureIn,VisibilityMPH,Wind Direction,Wind SpeedMPH,Gust SpeedMPH,PrecipitationIn,Events,Conditions,WindDirDegrees,DateUTC
12:55 AM,52.0,45.9,80,30.02,10.0,NNE,4.6,-,N/A,,Mostly Cloudy,20,2012-10-28 04:55:00
1:55 AM,52.2,42.1,69,30.03,10.0,NNE,4.6,-,N/A,,Mostly Cloudy,30,2012-10-28 05:55:00
2:55 AM,51.6,40.8,67,30.01,10.0,NNE,8.1,-,N/A,,Mostly Cloudy,30,2012-10-28 06:55:00
3:55 AM,52.0,43.0,71,30.01,10.0,NNE,9.2,-,N/A,,Mostly Cloudy,30,2012-10-28 07:55:00
4:55 AM,51.6,45.3,79,30.01,10.0,NNE,8.1,-,N/A,,Overcast,30,2012-10-28 08:55:00
5:41 AM,51.8,44.6,76,30.00,10.0,NNE,8.1,-,N/A,,Mostly Cloudy,30,2012-10-28 09:41:00
5:55 AM,51.4,45.9,81,30.01,10.0,NNE,9.2,-,N/A,,Mostly Cloudy,30,2012-10-28 09:55:00
6:26 AM,51.8,46.4,82,30.01,10.0,NNE,6.9,-,N/A,,Mostly Cloudy,20,2012-10-28 10:26:00
6:55 AM,51.3,46.6,84,30.01,10.0,NNE,9.2,-,N/A,,Mostly Cloudy,30,2012-10-28 10:55:00
7:55 AM,51.1,47.1,86,30.03,10.0,NNE,8.1,-,N/A,,Mostly Cloudy,20,2012-10-28 11:55:00
8:21 AM,51.8,46.4,82,30.03,10.0,North,8.1,-,N/A,,Overcast,10,2012-10-28 12:21:00
8:55 AM,52.2,48.2,86,30.03,10.0,NNE,10.4,-,N/A,,Overcast,20,2012-10-28 12:55:00
9:55 AM,53.2,48.9,85,30.04,7.0,NE,15.0,19.6,N/A,,Overcast,40,2012-10-28 13:55:00
10:55 AM,53.4,49.6,87,30.03,5.0,NNE,10.4,-,0.00,,Light Drizzle,30,2012-10-28 14:55:00
11:29 AM,51.8,50.0,94,30.02,2.0,NNE,9.2,-,N/A,,Light Drizzle,30,2012-10-28 15:29:00
11:55 AM,51.4,50.0,95,30.02,3.0,NNE,11.5,-,0.00,,Light Drizzle,30,2012-10-28 15:55:00
12:36 PM,51.8,50.0,94,30.00,2.0,NNE,12.7,-,N/A,,Overcast,30,2012-10-28 16:36:00
12:55 PM,51.3,50.2,96,29.99,1.5,NNE,11.5,-,0.00,,Light Drizzle,30,2012-10-28 16:55:00
1:45 PM,51.8,50.0,94,29.98,2.0,NNE,12.7,-,N/A,,Overcast,30,2012-10-28 17:45:00
1:55 PM,51.1,50.0,96,29.98,2.0,NNE,12.7,-,0.00,,Overcast,30,2012-10-28 17:55:00
2:35 PM,51.8,50.0,94,29.94,4.0,NE,18.4,24.2,N/A,,Overcast,40,2012-10-28 18:35:00
2:55 PM,51.3,49.6,94,29.94,4.0,NE,12.7,21.9,N/A,,Overcast,50,2012-10-28 18:55:00
3:55 PM,51.3,48.4,90,29.94,7.0,NE,12.7,21.9,N/A,,Overcast,40,2012-10-28 19:55:00
4:55 PM,50.9,46.9,86,29.92,10.0,NE,13.8,20.7,N/A,,Overcast,40,2012-10-28 20:55:00
5:55 PM,50.5,46.2,85,29.93,10.0,NE,16.1,19.6,N/A,,Overcast,40,2012-10-28 21:55:00
6:55 PM,50.2,45.3,83,29.94,10.0,NNE,11.5,-,N/A,,Overcast,30,2012-10-28 22:55:00
7:55 PM,50.5,45.0,81,29.93,10.0,NNE,9.2,-,N/A,,Overcast,30,2012-10-28 23:55:00
8:55 PM,50.4,44.8,81,29.92,10.0,NNE,11.5,-,N/A,,Overcast,20,2012-10-29 00:55:00
9:55 PM,50.2,45.9,85,29.89,7.0,NNE,12.7,-,N/A,,Overcast,20,2012-10-29 01:55:00
10:23 PM,50.0,46.4,87,29.88,5.0,NNE,12.7,19.6,N/A,,Light Drizzle,30,2012-10-29 02:23:00
10:35 PM,50.0,48.2,94,29.88,2.5,NNE,13.8,-,N/A,,Light Drizzle,30,2012-10-29 02:35:00
10:55 PM,49.8,48.4,95,29.87,2.5,NNE,12.7,20.7,0.00,,Light Drizzle,30,2012-10-29 02:55:00
11:55 PM,50.7,50.2,98,29.84,2.5,NE,13.8,-,0.02,,Light Drizzle,40,2012-10-29 03:55:00